Location: Unspecified
(0.0000°N, 0.0000°E)
Time: 19:32:09
(UTC+00:00)

FENGYUN 1C DEB - Pass Details

Date: 18 February 2026
Orbit: 819 x 963 km, 99.2° (Epoch: 3 October)

Event Time Altitude Azimuth Distance (km) Brightness Sun altitude
Rises 03:36:33 0° 143° (SE) 3,511 ? -38.4°
Reaches altitude 10° 03:39:26 10° 130° (SE) 2,546 ? -37.7°
Maximum altitude 03:43:55 24° 77° (ENE) 1,699 ? -36.6°
Enters shadow 03:46:19 18° 42° (NE) 1,960 ? -36.0°
